North Island, CA

11:05 AM PDT on September 19, 2017 (GMT -0700)
North Island Naval Air Station

Weather History for KNZY - December, 2012

Change the Weather History Date:

Tuesday, December 4, 2012

  Actual Average Record
Temperature  
Mean Temperature 64 °F -  
Max Temperature 68 °F 62 °F 77 °F (2006)
Min Temperature 61 °F 47 °F 43 °F (1996)
Growing Degree Days 14 (Base 50)    
Moisture  
Dew Point 57 °F    
Average Humidity 78    
Maximum Humidity 87    
Minimum Humidity 65    
Precipitation  
Precipitation 0.00 in - - ()
Sea Level Pressure  
Sea Level Pressure 30.17 in    
Wind  
Wind Speed 9 mph (NNW)    
Max Wind Speed 15 mph    
Max Gust Speed 24 mph    
Visibility 7 miles    
Events      
Averages and records for this station are not official NWS values.
T = Trace of Precipitation, MM = Missing Value Source: NWS Daily Summary

Daily Weather History Graph

Daily Weather History Graph

Search for Another Location

Airport or City:

Trip Planner

Search our weather history database for the weather conditions in past years. The results will help you decide how hot, cold, wet, or windy it might be!

Date:

Astronomy

Dec. 04, 2012 Rise Set
Actual Time 6:36 AM PST 4:42 PM PST
Civil Twilight 6:09 AM PST 5:09 PM PST
Nautical Twilight 5:38 AM PST 5:40 PM PST
Astronomical Twilight 5:08 AM PST 6:09 PM PST
Moon 10:21 PM PST (12/4) 10:43 AM PST (12/4)
Length of Visible Light 11h 00m
Length of Day
10h 06m
Waning Gibbous, 68% of the Moon is Illuminated
Dec 4
Waning Gibbous
Dec 6
Last Quarter
Dec 13
New
Dec 19
First Quarter
Dec 28
Full

Hourly Weather History & Observations

Time (PST) Temp. Dew Point Humidity Pressure Visibility Wind Dir Wind Speed Gust Speed Precip Events Conditions
12:24 AM 62.6 °F 57.2 °F 82% 30.17 in 8.0 mi NW 8.1 mph - N/A   Overcast
12:52 AM 62.1 °F 57.9 °F 86% 30.17 in 6.0 mi NNW 10.4 mph - N/A   Overcast
1:52 AM 62.1 °F 57.9 °F 86% 30.17 in 7.0 mi NW 10.4 mph - N/A   Overcast
2:52 AM 63.0 °F 57.0 °F 81% 30.17 in 8.0 mi NNW 8.1 mph - N/A   Overcast
3:52 AM 63.0 °F 57.0 °F 81% 30.18 in 9.0 mi North 9.2 mph - N/A   Overcast
4:52 AM 62.1 °F 57.0 °F 84% 30.18 in 10.0 mi NNE 6.9 mph - N/A   Mostly Cloudy
5:52 AM 62.1 °F 57.0 °F 84% 30.19 in 10.0 mi North 5.8 mph - N/A   Mostly Cloudy
6:27 AM 62.6 °F 57.2 °F 82% 30.20 in 10.0 mi NNE 5.8 mph - N/A   Mostly Cloudy
6:52 AM 62.1 °F 55.9 °F 80% 30.19 in 10.0 mi NNE 5.8 mph - N/A   Mostly Cloudy
7:52 AM 61.0 °F 57.0 °F 87% 30.20 in 10.0 mi Calm Calm - N/A   Mostly Cloudy
8:52 AM 64.0 °F 57.9 °F 80% 30.22 in 10.0 mi NW 6.9 mph - N/A   Mostly Cloudy
9:52 AM 66.9 °F 57.0 °F 70% 30.22 in 10.0 mi NW 9.2 mph - N/A   Mostly Cloudy
10:52 AM 68.0 °F 55.9 °F 65% 30.21 in 10.0 mi NW 13.8 mph - N/A   Mostly Cloudy
11:52 AM 68.0 °F 57.0 °F 68% 30.17 in 8.0 mi NW 15.0 mph - N/A   Mostly Cloudy
12:52 PM 68.0 °F 57.0 °F 68% 30.15 in 8.0 mi NW 13.8 mph - N/A   Mostly Cloudy
1:52 PM 66.9 °F 55.9 °F 68% 30.12 in 10.0 mi NW 12.7 mph - N/A   Mostly Cloudy
2:52 PM 66.0 °F 55.9 °F 70% 30.13 in 10.0 mi NW 13.8 mph 24.2 mph N/A   Mostly Cloudy
3:52 PM 64.9 °F 55.9 °F 73% 30.13 in 9.0 mi NW 13.8 mph - N/A   Mostly Cloudy
4:52 PM 64.0 °F 57.0 °F 78% 30.13 in 5.0 mi NNW 10.4 mph - N/A   Haze
5:52 PM 64.0 °F 57.0 °F 78% 30.14 in 4.0 mi NNW 10.4 mph - N/A   Mostly Cloudy
6:52 PM 63.0 °F 57.0 °F 81% 30.14 in 3.0 mi NNW 8.1 mph - N/A   Mostly Cloudy
7:52 PM 64.0 °F 57.9 °F 80% 30.16 in 3.0 mi NNW 10.4 mph - N/A   Mostly Cloudy
8:52 PM 64.0 °F 57.9 °F 80% 30.17 in 4.0 mi NNW 10.4 mph - N/A   Overcast
9:52 PM 64.0 °F 57.0 °F 78% 30.16 in 3.0 mi NNW 9.2 mph - N/A   Overcast
10:52 PM 64.0 °F 57.0 °F 78% 30.16 in 3.0 mi North 9.2 mph - N/A   Overcast
11:52 PM 64.0 °F 57.0 °F 78% 30.15 in 3.0 mi North 9.2 mph - N/A   Overcast